Wind_Speed
18 16 14 16 19 14 20 20 22 17 12 17 19 17 15 19 23 22 24 19 25 19 27 33 30 23 23 19 20 19 20 19 20 20 25 27 27 28 30 34 37 39 40 39
15 15 14 17 19 21 23 22 18 21 19 21 22 15 15 15 19 17 23 23 20 23 23 34 35 19 25 25 24 24 23 21 26 26 26 28 31 32 35 37 42 42 42 44
13 10 17 18 21 22 23 21 19 22 19 22 21 17 9 10 17 18 15 21 32 37 33 37 20 18 22 24 23 23 25 27 26 31 28 29 33 35 38 39 42 47 47 50
14 15 18 18 17 20 21 17 18 21 27 25 12 20 15 14 18 14 16 8 15 15 16 19 15 19 21 23 25 27 29 32 29 29 31 32 38 40 42 43 46 49 48 46
11 14 15 18 17 19 21 21 22 24 21 21 18 18 9 5 12 12 14 9 23 25 23 22 17 18 20 22 24 25 25 25 27 32 35 36 40 41 43 45 49 48 49 49
13 14 17 15 17 17 19 22 21 19 18 21 15 16 13 11 10 19 12 21 30 30 30 29 28 21 24 27 31 30 31 32 34 36 39 43 43 42 43 47 50 50 48 49
17 16 16 20 17 18 16 18 17 14 14 14 19 18 13 11 12 12 15 12 17 27 24 29 30 30 30 33 35 34 35 35 38 40 42 46 40 41 43 47 49 49 49 48
10 6 17 21 18 13 16 15 13 13 12 17 13 10 11 18 24 26 29 34 35 35 25 27 33 23 37 39 39 37 34 37 39 42 44 40 36 39 44 47 48 48 49 48
17 7 13 26 23 20 15 18 13 19 19 19 16 13 18 19 20 28 26 29 22 22 25 20 36 27 31 35 38 37 36 39 41 36 31 32 35 41 44 49 46 45 47 48
17 23 24 15 22 18 18 15 13 14 17 13 11 11 21 13 15 13 5 11 12 16 29 27 25 23 27 30 31 32 30 29 30 30 30 34 38 43 47 47 44 42 40 51
20 25 18 23 17 13 12 16 15 19 19 19 19 9 17 1 11 18 12 19 21 12 34 33 26 25 24 24 26 27 27 26 29 29 31 36 41 42 43 46 50 39 44 45
28 24 20 19 19 16 16 18 17 22 16 14 16 23 18 20 17 22 33 35 27 20 25 38 27 25 26 24 22 26 29 28 28 31 35 37 37 38 40 30 35 40 45 49
31 28 29 22 17 14 14 17 22 25 29 29 28 27 22 25 21 22 28 35 30 30 24 37 39 24 27 25 26 25 28 30 32 35 35 34 34 34 29 33 40 42 46 50
36 36 36 31 21 26 27 26 20 23 22 18 21 22 17 25 25 24 20 30 29 25 26 40 41 33 28 27 28 26 28 32 33 34 34 34 35 36 34 38 42 45 50 51
42 44 39 39 34 32 36 35 34 30 23 25 24 27 25 31 33 34 35 33 31 25 21 28 39 35 31 28 26 24 25 30 30 34 35 35 37 35 34 39 44 49 51 52
41 46 44 44 42 40 41 41 42 42 39 40 39 42 34 33 30 27 26 28 35 30 32 27 38 28 30 31 27 27 27 26 28 30 31 32 35 36 37 43 47 51 54 51
50 48 47 48 46 46 50 46 44 44 43 41 41 39 33 27 28 24 36 38 32 21 27 28 38 32 30 32 31 31 31 31 33 33 34 34 35 36 39 44 49 54 54 50
48 51 52 53 50 52 45 41 40 40 40 37 35 26 21 28 31 33 41 41 32 25 26 28 34 32 23 33 34 34 33 33 36 36 38 38 38 39 41 45 49 52 51 50
47 49 52 54 54 53 49 43 35 36 41 33 42 45 41 43 38 40 41 43 39 27 29 27 31 35 30 30 34 36 36 37 36 39 40 41 39 42 41 46 49 50 47 50
47 49 51 51 53 54 48 31 36 40 43 46 48 48 44 41 34 43 44 44 41 31 31 30 31 33 29 30 29 31 35 38 41 41 43 43 44 46 42 45 50 46 46 50
48 49 45 46 47 46 42 30 35 38 40 40 40 41 41 40 33 35 38 36 36 37 31 31 34 31 30 31 31 32 33 33 34 37 40 44 46 34 41 44 43 43 46 48
44 45 48 42 42 40 38 36 38 43 41 41 41 43 45 36 32 32 35 34 37 38 34 34 35 34 32 32 33 33 31 32 34 37 41 45 44 34 39 41 39 43 47 48
46 45 45 42 40 33 34 38 39 40 40 41 43 46 41 35 34 32 34 35 32 35 37 35 33 32 33 35 32 33 34 34 37 40 44 45 43 35 39 37 41 43 43 46
46 46 51 48 39 38 38 35 29 37 41 44 45 40 39 36 35 34 36 36 35 34 35 31 31 31 32 35 35 34 35 35 37 38 42 43 41 43 32 36 39 41 42 41
49 48 49 48 45 42 44 46 45 46 49 46 38 34 37 38 38 36 36 37 37 39 41 34 34 35 35 37 38 36 35 36 37 35 40 40 47 48 29 33 35 38 38 40
45 45 49 49 47 45 44 44 47 52 48 46 40 34 38 38 38 36 33 32 35 38 41 32 34 34 33 36 35 32 33 34 29 32 36 40 33 26 28 32 34 35 38 44
Wind_Direction
253 256 252 241 244 230 197 219 210 202 231 240 255 282 273 242 242 242 253 259 284 246 273 282 286 274 272 276 276 289 297 305 307 310 311 311 311 315 320 321 321 322 319 314
260 253 249 240 243 247 240 246 244 251 258 267 272 297 284 275 265 244 261 231 246 264 253 273 274 280 270 274 278 288 290 292 304 313 312 314 310 314 319 318 317 316 317 314
258 231 259 248 248 255 258 259 254 252 245 256 293 293 307 338 320 266 237 248 241 248 243 247 271 273 263 276 277 279 286 294 303 308 314 319 316 314 315 313 315 313 313 315
261 245 263 267 261 260 264 266 267 265 267 276 269 280 285 319 294 289 266 286 276 242 252 260 264 260 261 274 274 276 284 288 294 298 304 311 312 311 308 310 309 311 312 315
269 271 270 276 268 265 263 251 248 264 279 275 269 266 264 273 276 268 293 248 251 266 252 261 255 264 266 278 288 291 291 286 288 296 300 301 304 303 302 305 306 308 309 313
271 275 281 281 278 270 269 272 271 276 278 277 301 291 263 229 277 269 251 230 253 269 273 270 267 267 270 274 278 284 285 285 287 289 290 293 299 297 297 301 305 306 311 312
270 272 281 284 280 281 275 276 282 287 303 319 339 300 299 224 264 238 240 253 280 280 274 273 276 277 277 276 276 276 278 282 286 285 290 293 291 293 296 298 302 303 306 307
257 281 301 294 280 282 283 282 266 254 244 250 242 267 269 248 231 243 240 247 250 265 256 281 281 270 265 271 275 274 274 276 280 287 290 290 287 290 293 297 300 302 304 308
250 259 257 260 272 286 281 271 268 282 273 251 224 209 284 263 290 293 269 267 267 294 279 278 276 285 273 269 269 272 273 274 279 285 287 288 289 289 293 298 299 302 306 309
257 243 238 273 279 264 270 279 260 287 295 299 291 271 276 237 205 285 204 237 262 293 292 295 282 278 274 275 276 275 273 271 275 281 288 289 291 294 295 294 296 300 307 309
265 262 248 252 269 276 277 301 287 265 238 242 244 247 226 313 300 273 231 260 268 298 290 288 287 290 286 285 284 278 270 267 276 281 285 289 293 295 293 295 287 307 306 313
258 266 270 259 238 252 273 236 245 283 285 287 276 254 246 292 287 273 270 271 277 243 294 290 279 275 283 291 288 280 275 275 276 280 286 290 291 294 305 312 311 307 310 312
265 268 264 259 269 286 275 255 260 253 254 252 252 255 250 256 263 280 275 275 265 251 250 285 285 280 277 282 282 282 278 277 278 283 285 289 290 306 314 304 308 314 317 318
257 258 261 261 246 244 246 242 243 275 263 275 278 291 276 270 259 250 255 288 296 291 252 266 280 283 283 278 279 281 283 283 285 287 290 294 297 303 306 305 311 314 315 320
259 262 259 262 258 247 258 259 252 242 246 255 263 253 249 254 263 276 283 285 278 269 273 279 278 278 279 277 280 274 277 279 288 291 293 293 297 298 305 311 313 316 317 321
264 269 267 265 263 260 257 257 255 258 264 270 271 274 272 279 277 275 283 266 268 272 282 270 283 276 276 276 270 276 277 284 295 300 299 298 300 299 304 312 314 314 317 317
268 267 263 265 261 259 257 255 261 265 265 266 268 277 277 271 272 266 265 273 279 278 269 276 281 295 281 274 273 275 279 286 288 290 295 300 302 302 303 310 311 314 316 318
267 268 270 269 266 262 265 263 261 263 265 263 263 260 255 249 255 256 276 289 287 285 273 269 276 281 282 282 278 279 279 280 284 286 293 296 299 302 303 307 312 319 316 318
267 268 269 269 269 268 265 264 264 256 259 252 254 253 248 258 252 271 274 275 279 273 273 274 274 282 280 278 275 276 275 276 278 283 291 294 293 294 304 308 314 315 320 321
270 270 269 267 266 266 268 264 252 246 250 253 256 259 262 264 256 259 264 273 280 277 273 275 275 276 283 276 279 280 280 281 279 284 288 291 290 294 304 306 316 316 318 322
276 276 273 266 261 263 264 251 254 255 256 263 266 267 261 263 263 257 265 270 270 267 262 265 268 276 281 280 281 287 290 293 294 292 290 289 293 300 308 312 314 317 320 324
270 271 274 269 265 259 262 256 248 247 252 260 264 266 269 270 265 258 254 256 260 263 260 261 263 267 274 275 278 281 285 291 292 295 299 306 300 302 306 314 316 320 322 325
270 268 267 258 263 259 261 259 256 257 257 260 262 264 267 267 262 256 249 249 250 255 255 257 260 263 266 272 275 281 284 289 297 301 306 306 304 296 302 315 320 319 323 325
268 267 264 262 256 251 247 245 252 265 262 257 256 262 265 263 259 253 248 245 242 245 248 244 251 256 262 267 273 277 284 291 296 300 308 302 311 292 300 314 318 323 324 329
267 267 268 266 263 257 258 257 257 254 257 259 263 269 268 261 258 257 252 246 243 241 244 241 251 256 261 270 275 282 289 292 296 305 309 309 315 298 313 317 317 321 327 333
268 264 263 262 263 264 258 256 259 262 265 268 268 261 258 257 256 255 250 247 246 245 246 243 248 253 260 268 276 281 284 294 301 302 307 298 329 345 322 314 323 326 331 340
Height
5884 5885 5886 5886 5887 5890 5889 5893 5893 5896 5898 5897 5894 5893 5893 5893 5894 5895 5896 5897 5895 5896 5892 5886 5887 5888 5889 5891 5890 5891 5891 5889 5889 5889 5886 5884 5883 5880 5877 5873 5870 5866 5861 5858
5881 5882 5882 5883 5884 5885 5886 5887 5891 5891 5891 5891 5890 5890 5889 5888 5886 5887 5890 5890 5894 5893 5892 5883 5884 5886 5885 5886 5888 5887 5887 5888 5884 5884 5883 5881 5878 5876 5873 5870 5865 5861 5857 5851
5877 5878 5877 5880 5880 5880 5881 5884 5886 5887 5887 5885 5886 5886 5885 5886 5884 5883 5884 5887 5885 5884 5886 5881 5884 5884 5883 5883 5883 5884 5883 5882 5883 5878 5878 5876 5873 5870 5867 5865 5861 5855 5850 5845
5874 5875 5875 5876 5877 5877 5878 5880 5881 5882 5881 5882 5884 5883 5886 5885 5883 5883 5882 5881 5881 5881 5880 5879 5880 5881 5881 5880 5880 5880 5880 5878 5878 5875 5874 5873 5868 5865 5862 5860 5856 5850 5844 5839
5871 5871 5872 5873 5874 5874 5875 5874 5875 5876 5877 5876 5879 5879 5882 5885 5885 5884 5882 5883 5876 5877 5877 5876 5876 5877 5878 5877 5876 5876 5876 5874 5873 5872 5869 5868 5864 5861 5857 5854 5849 5845 5839 5833
5869 5869 5870 5870 5870 5871 5871 5871 5872 5873 5873 5872 5875 5875 5877 5881 5885 5883 5881 5876 5874 5876 5873 5871 5868 5873 5873 5872 5871 5872 5871 5870 5869 5867 5864 5862 5857 5855 5851 5847 5842 5837 5832 5826
5865 5867 5868 5866 5868 5867 5868 5867 5869 5870 5871 5872 5875 5874 5875 5878 5878 5877 5875 5874 5869 5867 5869 5867 5866 5866 5867 5866 5865 5866 5865 5865 5863 5861 5858 5855 5852 5849 5846 5841 5836 5831 5825 5821
5864 5869 5865 5862 5863 5865 5865 5865 5866 5866 5869 5869 5872 5873 5877 5873 5874 5871 5869 5867 5867 5868 5866 5861 5855 5863 5860 5858 5857 5858 5860 5858 5856 5854 5851 5848 5845 5843 5840 5834 5829 5823 5817 5813
5859 5864 5864 5860 5861 5861 5862 5862 5865 5865 5864 5865 5868 5868 5866 5868 5865 5864 5866 5864 5861 5859 5856 5859 5851 5854 5852 5850 5850 5850 5852 5850 5849 5847 5844 5842 5840 5837 5833 5827 5822 5818 5812 5807
5855 5855 5855 5857 5855 5858 5858 5860 5860 5862 5861 5861 5865 5867 5863 5863 5859 5860 5860 5859 5858 5856 5850 5850 5847 5849 5846 5844 5843 5842 5844 5843 5842 5840 5838 5836 5834 5830 5826 5820 5816 5811 5806 5798
5851 5850 5855 5853 5855 5855 5857 5855 5857 5857 5858 5857 5859 5863 5852 5854 5853 5850 5851 5853 5853 5855 5843 5844 5843 5842 5840 5839 5838 5837 5837 5837 5835 5834 5832 5830 5827 5823 5818 5814 5808 5804 5799 5791
5844 5846 5848 5849 5850 5852 5853 5853 5855 5852 5854 5853 5853 5855 5857 5854 5852 5850 5847 5847 5847 5846 5841 5834 5838 5837 5834 5834 5833 5832 5830 5830 5829 5828 5826 5824 5820 5817 5813 5807 5803 5798 5791 5783
5839 5841 5840 5844 5848 5847 5846 5849 5849 5848 5847 5847 5847 5847 5850 5849 5846 5845 5842 5839 5837 5837 5839 5829 5826 5832 5829 5828 5826 5826 5825 5824 5823 5822 5820 5818 5814 5810 5805 5802 5796 5790 5783 5775
5832 5832 5833 5837 5842 5838 5838 5840 5841 5841 5840 5842 5841 5841 5842 5841 5839 5829 5827 5833 5833 5831 5829 5822 5821 5824 5824 5822 5821 5820 5820 5818 5817 5815 5813 5810 5807 5804 5799 5794 5788 5782 5774 5765
5823 5822 5827 5827 5831 5833 5830 5832 5834 5833 5834 5835 5836 5834 5834 5834 5831 5827 5826 5828 5826 5822 5823 5821 5816 5817 5817 5816 5816 5815 5813 5811 5811 5808 5806 5803 5799 5796 5792 5787 5780 5773 5765 5757
5816 5814 5817 5818 5820 5823 5823 5822 5821 5822 5825 5824 5824 5822 5825 5824 5824 5823 5821 5816 5814 5817 5817 5812 5808 5811 5810 5810 5810 5809 5808 5806 5805 5802 5798 5796 5792 5787 5783 5778 5772 5764 5756 5748
5799 5802 5804 5806 5808 5809 5806 5812 5815 5814 5814 5815 5814 5816 5816 5816 5815 5815 5808 5805 5807 5809 5809 5807 5802 5805 5804 5803 5803 5802 5802 5801 5798 5795 5792 5789 5785 5781 5776 5770 5763 5756 5748 5740
5791 5790 5791 5792 5793 5794 5800 5801 5802 5802 5803 5804 5805 5806 5808 5804 5801 5800 5797 5798 5801 5802 5802 5800 5796 5795 5798 5798 5797 5796 5796 5794 5791 5788 5785 5782 5776 5772 5767 5761 5754 5747 5739 5732
5779 5779 5779 5779 5779 5783 5785 5787 5791 5790 5791 5792 5789 5790 5792 5792 5794 5791 5788 5786 5789 5796 5795 5794 5793 5788 5791 5792 5791 5789 5787 5785 5784 5780 5778 5773 5768 5763 5759 5753 5746 5740 5732 5723
5768 5767 5767 5767 5767 5767 5772 5776 5771 5774 5774 5775 5776 5777 5779 5781 5786 5776 5780 5781 5782 5786 5787 5788 5786 5780 5783 5782 5783 5782 5779 5778 5776 5773 5769 5764 5759 5755 5750 5744 5738 5732 5723 5715
5752 5751 5754 5754 5754 5756 5760 5765 5760 5762 5766 5764 5766 5766 5767 5769 5774 5774 5772 5773 5774 5774 5778 5778 5777 5778 5778 5775 5774 5773 5772 5770 5768 5764 5760 5755 5751 5746 5743 5737 5730 5723 5716 5708
5744 5741 5740 5743 5741 5745 5745 5749 5749 5748 5750 5752 5754 5752 5751 5758 5761 5762 5762 5764 5763 5763 5767 5768 5768 5770 5770 5768 5767 5765 5765 5763 5760 5757 5753 5748 5742 5738 5736 5731 5725 5717 5710 5702
5732 5731 5730 5732 5731 5731 5734 5734 5735 5738 5739 5740 5739 5738 5744 5747 5748 5750 5751 5752 5754 5754 5756 5758 5760 5762 5762 5761 5760 5760 5759 5757 5754 5749 5746 5742 5734 5732 5728 5723 5717 5711 5704 5697
5719 5718 5713 5718 5725 5724 5724 5724 5724 5725 5725 5722 5723 5730 5732 5735 5736 5738 5739 5742 5744 5745 5746 5750 5752 5753 5754 5754 5753 5753 5752 5750 5746 5743 5739 5734 5730 5723 5718 5715 5711 5704 5698 5691
5706 5704 5703 5705 5709 5711 5712 5711 5711 5710 5708 5711 5719 5723 5723 5724 5725 5727 5729 5734 5735 5736 5736 5742 5744 5745 5746 5746 5746 5746 5745 5743 5740 5737 5733 5729 5723 5716 5710 5710 5706 5700 5693 5686
5691 5690 5687 5689 5694 5695 5698 5700 5699 5695 5701 5704 5708 5710 5709 5710 5714 5718 5721 5723 5726 5728 5727 5735 5736 5738 5739 5739 5739 5740 5738 5736 5734 5730 5725 5721 5716 5709 5709 5706 5701 5695 5687 5679